Location: Unspecified
(29.9680°N, 0.0000°E)
Time: 06:38:43
(UTC+00:00)

Vanguard 1 Rocket - Visible Passes

Search period start: 13 August 2020 00:00
Search period end: 23 August 2020 00:00
Orbit: 655 x 4222 km, 34.3° (Epoch: 12 August)

Date Brightness Start Highest point End Pass type
(mag) Time Alt. Az. Time Alt. Az. Time Alt. Az.
13 Aug 10.0 02:32:22 29° S 02:35:04 31° SSE 02:43:29 10° E visible
13 Aug 8.4 04:50:16 10° WSW 05:02:34 73° SSE 05:08:54 10° ENE visible
14 Aug 10.6 01:25:08 21° SE 01:25:08 21° SE 01:31:00 10° ESE visible
14 Aug 9.1 03:42:25 25° SW 03:50:46 54° SSE 03:58:22 10° E visible
15 Aug 9.7 02:35:09 37° S 02:38:20 41° SSE 02:47:22 10° E visible
15 Aug 8.4 04:52:59 10° WSW 05:05:46 87° SSE 05:12:15 10° ENE visible
16 Aug 10.3 01:27:51 29° SE 01:27:51 29° SE 01:35:33 10° E visible
16 Aug 8.9 03:45:08 27° SW 03:53:56 68° SSE 04:01:48 10° ENE visible
17 Aug 11.0 00:20:31 13° ESE 00:20:31 13° ESE 00:22:10 10° ESE visible
17 Aug 9.5 02:37:47 45° S 02:41:31 52° SSE 02:50:59 10° E visible
17 Aug 8.5 04:55:53 10° WSW 05:08:58 81° NNW 05:15:35 10° ENE visible
18 Aug 10.1 01:30:25 38° SE 01:30:25 38° SE 01:39:33 10° E visible
18 Aug 8.8 03:47:41 27° WSW 03:57:05 80° SSE 04:05:08 10° ENE visible
19 Aug 10.8 00:23:01 20° ESE 00:23:01 20° ESE 00:27:01 10° E visible
19 Aug 9.3 02:40:16 50° SSW 02:44:37 63° SSE 02:54:26 10° ENE visible
19 Aug 8.6 04:58:55 10° W 05:12:13 74° NNW 05:18:55 10° ENE visible
20 Aug 9.9 01:32:50 49° SE 01:32:50 49° SE 01:43:14 10° E visible
20 Aug 8.9 03:50:05 26° WSW 04:00:13 89° NNW 04:08:28 10° ENE visible
21 Aug 10.6 00:25:21 27° ESE 00:25:21 27° ESE 00:31:11 10° E visible
21 Aug 9.3 02:42:36 52° SW 02:47:41 75° SSE 02:57:48 10° ENE visible
21 Aug 8.7 05:02:02 10° W 05:15:30 69° N 05:22:18 10° ENE visible
21 Aug 11.2 23:17:50 10° E 23:17:50 10° E 22:37:46 - SSW visible
22 Aug 9.7 01:35:05 59° SE 01:35:05 59° SE 01:46:43 10° ENE visible
22 Aug 9.0 03:52:20 24° W 04:03:23 81° NNW 04:11:47 10° ENE visible
